TimeCDT,TemperatureF,Dew PointF,Humidity,Sea Level PressureIn,VisibilityMPH,Wind Direction,Wind SpeedMPH,Gust SpeedMPH,PrecipitationIn,Events,Conditions,WindDirDegrees,DateUTC
12:53 AM,73.9,64.9,73,29.83,10.0,South,18.4,26.5,N/A,,Clear,170,2013-04-10 05:53:00
1:53 AM,73.9,64.9,73,29.81,10.0,South,13.8,23.0,N/A,,Scattered Clouds,180,2013-04-10 06:53:00
2:53 AM,73.9,64.9,73,29.80,10.0,South,19.6,26.5,N/A,,Clear,190,2013-04-10 07:53:00
3:53 AM,73.0,64.9,76,29.81,10.0,South,13.8,-,N/A,,Clear,190,2013-04-10 08:53:00
4:53 AM,72.0,64.9,78,29.83,10.0,SSW,8.1,-,N/A,,Overcast,200,2013-04-10 09:53:00
5:53 AM,72.0,64.9,78,29.84,10.0,South,8.1,-,N/A,,Overcast,180,2013-04-10 10:53:00
6:46 AM,71.6,66.2,83,29.85,10.0,South,13.8,-,N/A,,Mostly Cloudy,180,2013-04-10 11:46:00
6:53 AM,72.0,66.0,81,29.83,10.0,South,10.4,-,N/A,,Mostly Cloudy,180,2013-04-10 11:53:00
7:41 AM,71.6,66.2,83,29.86,10.0,South,9.2,-,N/A,,Mostly Cloudy,170,2013-04-10 12:41:00
7:53 AM,72.0,66.0,81,29.85,10.0,South,12.7,-,N/A,,Overcast,170,2013-04-10 12:53:00
8:53 AM,73.0,66.0,79,29.86,10.0,South,13.8,-,N/A,,Overcast,170,2013-04-10 13:53:00
9:53 AM,75.0,66.0,73,29.86,10.0,South,12.7,19.6,N/A,,Overcast,180,2013-04-10 14:53:00
10:53 AM,75.0,68.0,79,29.87,10.0,South,11.5,-,0.01,Rain,Light Rain,180,2013-04-10 15:53:00
11:13 AM,75.2,66.2,73,29.88,10.0,South,16.1,26.5,0.00,,Mostly Cloudy,190,2013-04-10 16:13:00
11:29 AM,77.0,68.0,74,29.87,10.0,South,13.8,-,0.00,,Mostly Cloudy,170,2013-04-10 16:29:00
11:38 AM,77.0,68.0,74,29.87,10.0,South,15.0,-,0.00,,Mostly Cloudy,170,2013-04-10 16:38:00
12:53 PM,81.0,66.9,62,29.83,10.0,South,19.6,29.9,N/A,,Scattered Clouds,190,2013-04-10 17:53:00
1:53 PM,82.0,64.9,56,29.80,10.0,SSW,19.6,31.1,N/A,,Overcast,200,2013-04-10 18:53:00
2:53 PM,82.9,66.0,56,29.77,10.0,South,17.3,23.0,N/A,,Mostly Cloudy,190,2013-04-10 19:53:00
3:53 PM,82.0,64.9,56,29.73,10.0,South,19.6,26.5,N/A,,Mostly Cloudy,170,2013-04-10 20:53:00
4:53 PM,81.0,64.0,56,29.69,10.0,South,16.1,29.9,N/A,,Mostly Cloudy,170,2013-04-10 21:53:00
5:53 PM,80.1,63.0,56,29.65,10.0,South,16.1,29.9,N/A,,Mostly Cloudy,170,2013-04-10 22:53:00
6:53 PM,79.0,63.0,58,29.64,10.0,South,12.7,20.7,N/A,,Clear,180,2013-04-10 23:53:00
7:53 PM,78.1,62.1,58,29.63,10.0,SSE,11.5,-,0.00,Rain,Light Rain,150,2013-04-11 00:53:00
8:13 PM,75.2,62.6,65,29.64,10.0,SE,10.4,-,0.00,Rain-Thunderstorm,Light Rain,140,2013-04-11 01:13:00
8:53 PM,73.9,64.9,73,29.67,7.0,SSW,15.0,26.5,0.05,Rain-Thunderstorm,Light Thunderstorms and Rain,200,2013-04-11 01:53:00
8:56 PM,69.8,64.4,83,29.70,1.2,WSW,32.2,44.9,0.00,Rain-Thunderstorm,Light Thunderstorms and Rain,240,2013-04-11 01:56:00
9:02 PM,64.4,62.6,94,29.74,0.8,SW,20.7,44.9,0.29,Rain-Thunderstorm,Heavy Thunderstorms and Rain,230,2013-04-11 02:02:00
9:05 PM,64.4,62.6,94,29.74,1.0,SW,23.0,44.9,N/A,Rain-Thunderstorm,Thunderstorms and Rain,220,2013-04-11 02:05:00
9:09 PM,64.4,62.6,94,29.72,3.0,SW,17.3,38.0,0.33,Rain-Thunderstorm,Thunderstorms and Rain,230,2013-04-11 02:09:00
9:53 PM,66.0,64.9,96,29.73,3.0,WSW,3.5,-,0.44,Rain-Thunderstorm,Thunderstorms and Rain,250,2013-04-11 02:53:00
10:48 PM,64.4,64.4,100,29.68,5.0,ESE,5.8,-,0.24,Rain-Thunderstorm,Rain,120,2013-04-11 03:48:00
10:53 PM,64.9,64.0,97,29.66,5.0,SE,6.9,-,0.26,Rain-Thunderstorm,Rain,130,2013-04-11 03:53:00
11:24 PM,64.4,64.4,100,29.69,9.0,South,4.6,-,0.06,Rain,Light Rain,180,2013-04-11 04:24:00
11:53 PM,64.9,64.0,97,29.66,5.0,ESE,6.9,-,0.16,Rain,Rain,120,2013-04-11 04:53:00